TimeAST,TemperatureF,Dew PointF,Humidity,Sea Level PressureIn,VisibilityMPH,Wind Direction,Wind SpeedMPH,Gust SpeedMPH,PrecipitationIn,Events,Conditions,WindDirDegrees,DateUTC
12:00 AM,80.6,75.2,84,29.92,5.6,SE,5.8,-,N/A,,Unknown,130,2013-11-01 21:00:00
1:00 AM,78.8,75.2,89,29.92,5.0,SE,4.6,-,N/A,,Unknown,130,2013-11-01 22:00:00
2:00 AM,80.6,75.2,84,29.92,5.0,East,4.6,-,N/A,,Unknown,100,2013-11-01 23:00:00
3:00 AM,80,75,81,29.94,5,East,3.5,,,,Haze,100,2013-11-02 00:00:00
3:00 AM,80.6,75.2,84,29.92,5.0,East,3.5,-,N/A,,Unknown,100,2013-11-02 00:00:00
3:30 AM,80.6,75.2,84,29.95,5.0,SSW,3.5,-,N/A,,Unknown,210,2013-11-02 00:30:00
4:00 AM,78.8,75.2,89,29.95,5.0,Variable,2.3,-,N/A,,Unknown,0,2013-11-02 01:00:00
4:30 AM,78.8,75.2,89,29.95,4.3,Variable,2.3,-,N/A,,Unknown,0,2013-11-02 01:30:00
5:00 AM,78.8,75.2,89,29.95,3.7,Calm,Calm,-,N/A,,Unknown,0,2013-11-02 02:00:00
6:00 AM,77.0,71.6,83,29.95,3.7,WSW,3.5,-,N/A,,Partly Cloudy,240,2013-11-02 03:00:00
6:30 AM,77.0,71.6,83,29.98,3.7,WSW,3.5,-,N/A,,Partly Cloudy,250,2013-11-02 03:30:00
7:00 AM,78.8,71.6,78,29.98,3.7,WSW,3.5,-,N/A,,Partly Cloudy,250,2013-11-02 04:00:00
7:30 AM,80.6,73.4,79,29.98,3.7,Variable,2.3,-,N/A,,Partly Cloudy,0,2013-11-02 04:30:00
8:00 AM,82.4,75.2,79,30.01,3.7,Variable,2.3,-,N/A,,Scattered Clouds,0,2013-11-02 05:00:00
8:30 AM,84.2,75.2,74,30.01,4.3,Variable,2.3,-,N/A,,Scattered Clouds,0,2013-11-02 05:30:00
9:00 AM,84,75,68,30.01,5,ESE,4.6,,,,Haze,110,2013-11-02 06:00:00
9:00 AM,84.2,75.2,74,30.01,5.0,ESE,4.6,-,N/A,,Scattered Clouds,110,2013-11-02 06:00:00
9:30 AM,86.0,75.2,70,30.01,5.0,ESE,6.9,-,N/A,,Mostly Cloudy,120,2013-11-02 06:30:00
10:00 AM,86.0,75.2,70,29.98,6.2,ESE,6.9,-,N/A,,Scattered Clouds,120,2013-11-02 07:00:00
10:30 AM,87.8,75.2,66,29.98,-9999.0,East,9.2,-,N/A,,Clear,100,2013-11-02 07:30:00
11:00 AM,87.8,75.2,66,29.98,-9999.0,East,9.2,-,N/A,,Clear,90,2013-11-02 08:00:00
11:30 AM,86.0,75.2,70,29.98,-9999.0,ESE,8.1,-,N/A,,Clear,110,2013-11-02 08:30:00
12:00 PM,87.8,75.2,66,29.95,6.2,East,9.2,-,N/A,,Partly Cloudy,90,2013-11-02 09:00:00
12:30 PM,86.0,77.0,74,29.95,6.2,East,9.2,-,N/A,,Partly Cloudy,90,2013-11-02 09:30:00
1:00 PM,86.0,75.2,70,29.92,6.2,East,8.1,-,N/A,,Partly Cloudy,100,2013-11-02 10:00:00
1:30 PM,87.8,75.2,66,29.92,6.2,ENE,9.2,-,N/A,,Partly Cloudy,70,2013-11-02 10:30:00
2:00 PM,86.0,77.0,74,29.92,6.2,ENE,10.4,-,N/A,,Partly Cloudy,70,2013-11-02 11:00:00
2:30 PM,86.0,77.0,74,29.92,6.2,ENE,9.2,-,N/A,,Partly Cloudy,70,2013-11-02 11:30:00
3:00 PM,85,77,70,29.92,6,ENE,9.2,,,,Scattered Clouds,60,2013-11-02 12:00:00
3:30 PM,84.2,77.0,79,29.92,-9999.0,ENE,9.2,-,N/A,,Clear,60,2013-11-02 12:30:00
4:00 PM,84.2,77.0,79,29.92,-9999.0,ENE,8.1,-,N/A,,Clear,70,2013-11-02 13:00:00
4:30 PM,84.2,75.2,74,29.92,-9999.0,East,8.1,-,N/A,,Clear,80,2013-11-02 13:30:00
5:00 PM,84.2,75.2,74,29.92,-9999.0,ENE,6.9,-,N/A,,Clear,70,2013-11-02 14:00:00
5:30 PM,84.2,75.2,74,29.92,-9999.0,ENE,6.9,-,N/A,,Clear,60,2013-11-02 14:30:00
6:00 PM,82.4,75.2,79,29.92,-9999.0,ENE,6.9,-,N/A,,Clear,70,2013-11-02 15:00:00
6:30 PM,82.4,75.2,79,29.92,-9999.0,East,6.9,-,N/A,,Clear,80,2013-11-02 15:30:00
7:00 PM,82.4,77.0,84,29.92,-9999.0,East,6.9,-,N/A,,Clear,90,2013-11-02 16:00:00
8:00 PM,82.4,75.2,79,29.95,-9999.0,NNE,4.6,-,N/A,,Clear,30,2013-11-02 17:00:00
9:00 PM,82,77,79,29.96,6,East,3.5,,,,Haze,80,2013-11-02 18:00:00
9:00 PM,82.4,77.0,84,29.95,5.6,East,3.5,-,N/A,,Unknown,80,2013-11-02 18:00:00
9:30 PM,82.4,77.0,84,29.95,5.6,East,4.6,-,N/A,,Unknown,80,2013-11-02 18:30:00
10:00 PM,82.4,77.0,84,29.95,5.6,ENE,3.5,-,N/A,,Unknown,60,2013-11-02 19:00:00
10:30 PM,82.4,77.0,84,29.95,5.6,ENE,3.5,-,N/A,,Unknown,60,2013-11-02 19:30:00
11:00 PM,82.4,77.0,84,29.95,5.6,East,3.5,-,N/A,,Unknown,80,2013-11-02 20:00:00
11:30 PM,82.4,77.0,84,29.95,5.0,East,3.5,-,N/A,,Unknown,80,2013-11-02 20:30:00